User: anonymous
Location: Brno
(49.2000°N, 16.6330°E)
Time: 04:10:43
(UTC+02:00)
Language:

Meteor 1-4 Rocket - Orbit

View from above orbital plane
View from above orbital plane
View from above satellite
View from above satellite

Ground track
Ground track

The orbit data is extracted from the following two-line orbital elements,

1 04394U 70037B   14245.12447602  .00003098  00000-0  13505-3 0  6588
2 04394 081.2459 126.7188 0047890 352.4767 007.5739 15.20805520409402
Epoch (UTC): 02 September 2014 02:59:14
Eccentricity: 0.0047890
inclination: 81.2459°
perigee height: 470 km
apogee height: 536 km
right ascension of ascending node: 126.7188°
argument of perigee: 352.4767°
revolutions per day: 15.20805520
mean anomaly at epoch: 7.5739°
orbit number at epoch: 40940

The dashed part of the orbit path shows where the satellite is in the earth's shadow,  

DLR